CW3546 Weather Reports


Display with metric or nautical units.
time (UTC)temp
F
wind
direction
speed
MPH
gust
MPH
rain 1hr
in
rain 24hr
in
rain mn
in
humidity
%
barometer
mb
20260508094542 59 312 0.0 3.0 0.00 0.00 0.00 53 1016.9
20260508094041 59 312 0.0 3.0 0.00 0.00 0.00 51 1016.9
20260508093541 59 312 0.0 4.0 0.00 0.00 0.00 52 1017.0
20260508093041 59 309 0.0 4.0 0.00 0.00 0.00 51 1016.9
20260508092540 59 327 1.0 3.0 0.00 0.00 0.00 52 1017.0
20260508092039 59 111 0.0 2.0 0.00 0.00 0.00 52 1016.9
20260508091539 59 61 0.0 3.0 0.00 0.00 0.00 53 1016.9
20260508091037 59 81 0.0 4.0 0.00 0.00 0.00 54 1016.8
20260508090537 59 298 0.0 5.0 0.00 0.00 0.00 55 1016.8
20260508090044 59 142 0.0 5.0 0.00 0.00 0.00 54 1016.8
20260508085536 59 293 0.0 5.0 0.00 0.00 0.00 55 1016.8
20260508085036 59 168 0.0 4.0 0.00 0.00 0.00 57 1016.8
20260508084534 58 315 0.0 3.0 0.00 0.00 0.00 60 1016.8
20260508084033 58 315 1.0 4.0 0.00 0.00 0.00 60 1016.8
20260508083530 57 33 0.0 4.0 0.00 0.00 0.00 61 1016.8
20260508083037 56 15 0.0 3.0 0.00 0.00 0.00 64 1016.8
20260508082530 56 324 0.0 2.0 0.00 0.00 0.00 63 1016.8
20260508082028 56 93 0.0 3.0 0.00 0.00 0.00 65 1016.7
20260508081526 56 123 0.0 4.0 0.00 0.00 0.00 65 1016.7
20260508081025 56 115 0.0 4.0 0.00 0.00 0.00 66 1016.8
20260508080526 55 92 0.0 1.0 0.00 0.00 0.00 67 1016.8
20260508080027 55 88 0.0 2.0 0.00 0.00 0.00 68 1016.8
20260508075522 55 88 0.0 3.0 0.00 0.00 0.00 68 1016.8
20260508075019 54 105 0.0 3.0 0.00 0.00 0.00 68 1016.7
20260508074519 54 278 0.0 1.0 0.00 0.00 0.00 69 1016.7
20260508074017 54 152 0.0 0.0 0.00 0.00 0.00 70 1016.7
20260508073516 54 148 0.0 1.0 0.00 0.00 0.00 70 1016.6
20260508073016 54 146 0.0 1.0 0.00 0.00 0.00 70 1016.6
20260508072512 54 135 0.0 3.0 0.00 0.00 0.00 72 1016.6
20260508072011 53 186 0.0 3.0 0.00 0.00 0.00 73 1016.6
20260508071510 53 288 0.0 2.0 0.00 0.00 0.00 73 1016.6
20260508071008 53 130 0.0 1.0 0.00 0.00 0.00 75 1016.5
20260508070508 53 134 0.0 0.0 0.00 0.00 0.00 75 1016.5
20260508070007 53 134 0.0 1.0 0.00 0.00 0.00 77 1016.4
20260508065504 52 130 0.0 1.0 0.00 0.00 0.00 78 1016.4
20260508065003 52 128 0.0 4.0 0.00 0.00 0.00 78 1016.4
20260508064502 52 126 0.0 4.0 0.00 0.00 0.00 79 1016.3
20260508064003 51 166 0.0 4.0 0.00 0.00 0.00 81 1016.2
20260508063559 51 166 0.0 4.0 0.00 0.00 0.00 82 1016.2
20260508063059 51 134 0.0 2.0 0.00 0.00 0.00 82 1016.2
20260508062558 50 152 0.0 1.0 0.00 0.00 0.00 82 1016.1
20260508062055 50 175 0.0 0.0 0.00 0.00 0.00 83 1016.1
20260508061600 50 175 0.0 1.0 0.00 0.00 0.00 83 1016.1
20260508061054 50 175 0.0 1.0 0.00 0.00 0.00 84 1016.0
20260508060552 49 175 0.0 1.0 0.00 0.00 0.00 84 1016.0
20260508060051 49 176 0.0 1.0 0.00 0.00 0.00 85 1016.0
20260508055551 49 176 0.0 0.0 0.00 0.00 0.00 85 1016.0
20260508055051 49 176 0.0 0.0 0.00 0.00 0.00 86 1015.9
20260508054615 48 176 0.0 0.0 0.00 0.00 0.00 86 1015.9
20260508054048 48 176 0.0 0.0 0.00 0.00 0.00 86 1015.9
20260508053548 48 176 0.0 0.0 0.00 0.00 0.00 86 1016.0
20260508053047 48 176 0.0 0.0 0.00 0.00 0.00 87 1016.0
20260508052545 48 176 0.0 0.0 0.00 0.00 0.00 86 1016.0
20260508052043 48 176 0.0 0.0 0.00 0.00 0.00 86 1015.8
20260508051545 48 176 0.0 0.0 0.00 0.00 0.00 86 1015.9
20260508051042 47 176 0.0 0.0 0.00 0.00 0.00 86 1015.8
20260508050542 48 176 0.0 0.0 0.00 0.00 0.00 86 1015.8
20260508050043 48 176 0.0 0.0 0.00 0.00 0.00 86 1015.8
20260508045540 48 176 0.0 0.0 0.00 0.00 0.00 85 1015.8
20260508045039 48 176 0.0 0.0 0.00 0.00 0.00 85 1015.7
20260508044539 48 176 0.0 0.0 0.00 0.00 0.00 85 1015.7
20260508044039 48 171 0.0 0.0 0.00 0.00 0.00 85 1015.6
20260508043539 47 171 0.0 0.0 0.00 0.00 0.00 86 1015.7
20260508043047 47 171 0.0 0.0 0.00 0.00 0.00 86 1015.6
20260508042540 47 171 0.0 0.0 0.00 0.00 0.00 86 1015.6
20260508042040 47 171 0.0 0.0 0.00 0.00 0.00 85 1015.6
20260508041537 47 171 0.0 0.0 0.00 0.00 0.00 86 1015.6
20260508041040 47 171 0.0 0.0 0.00 0.00 0.00 85 1015.6
20260508040537 47 171 0.0 0.0 0.00 0.00 0.00 85 1015.6
20260508040043 47 171 0.0 0.0 0.00 0.00 0.00 85 1015.6
20260508035539 47 171 0.0 0.0 0.00 0.00 0.00 85 1015.5
20260508035036 47 171 0.0 0.0 0.00 0.00 0.00 85 1015.5
20260508034536 47 171 0.0 0.0 0.00 0.00 0.00 85 1015.5
20260508034035 47 171 0.0 0.0 0.00 0.00 0.00 85 1015.5
20260508033535 47 171 0.0 0.0 0.00 0.00 0.00 85 1015.5
20260508033036 47 171 0.0 0.0 0.00 0.00 0.00 84 1015.5
20260508032535 47 171 0.0 0.0 0.00 0.00 0.00 85 1015.5
20260508032034 47 171 0.0 0.0 0.00 0.00 0.00 85 1015.5
20260508031535 47 171 0.0 0.0 0.00 0.00 0.00 85 1015.5
20260508031033 46 171 0.0 0.0 0.00 0.00 0.00 85 1015.5
20260508030534 46 171 0.0 0.0 0.00 0.00 0.00 85 1015.5
20260508030034 46 171 0.0 0.0 0.00 0.00 0.00 85 1015.5
20260508025533 46 171 0.0 0.0 0.00 0.00 0.00 85 1015.5
20260508025036 46 171 0.0 0.0 0.00 0.00 0.00 85 1015.5
20260508024533 46 171 0.0 0.0 0.00 0.00 0.00 85 1015.5
20260508024032 46 171 0.0 0.0 0.00 0.00 0.00 85 1015.5
20260508023531 46 171 0.0 0.0 0.00 0.00 0.00 85 1015.5
20260508023031 46 171 0.0 0.0 0.00 0.00 0.00 85 1015.5
20260508022531 46 171 0.0 1.0 0.00 0.00 0.00 85 1015.5
20260508022031 46 171 0.0 0.0 0.00 0.00 0.00 85 1015.4
20260508021530 46 171 0.0 0.0 0.00 0.00 0.00 85 1015.4
20260508021033 46 171 0.0 0.0 0.00 0.00 0.00 84 1015.4
20260508020530 46 171 0.0 0.0 0.00 0.00 0.00 84 1015.4
20260508020029 46 171 0.0 0.0 0.00 0.00 0.00 83 1015.4
20260508015528 46 171 0.0 0.0 0.00 0.00 0.00 82 1015.4
20260508015029 47 171 0.0 0.0 0.00 0.00 0.00 83 1015.3
20260508014527 47 171 0.0 0.0 0.00 0.00 0.00 82 1015.4
20260508014026 47 171 0.0 0.0 0.00 0.00 0.00 82 1015.4
20260508013525 47 171 0.0 0.0 0.00 0.00 0.00 81 1015.4
20260508013026 48 171 0.0 0.0 0.00 0.00 0.00 81 1015.4
20260508012524 48 171 0.0 0.0 0.00 0.00 0.00 81 1015.5
20260508012022 48 171 0.0 0.0 0.00 0.00 0.00 81 1015.5
20260508011524 48 171 0.0 0.0 0.00 0.00 0.00 81 1015.5
20260508011021 48 171 0.0 0.0 0.00 0.00 0.00 81 1015.5
20260508010521 48 171 0.0 0.0 0.00 0.00 0.00 81 1015.5
20260508010027 49 171 0.0 0.0 0.00 0.00 0.00 80 1015.5
20260508005520 49 171 0.0 0.0 0.00 0.00 0.00 80 1015.4
20260508005019 49 171 0.0 0.0 0.00 0.00 0.00 79 1015.4
20260508004531 49 171 0.0 0.0 0.00 0.00 0.00 79 1015.5
20260508004018 49 171 0.0 0.0 0.00 0.00 0.00 78 1015.5
20260508003517 49 171 0.0 0.0 0.00 0.00 0.00 78 1015.5
20260508003016 50 171 0.0 0.0 0.00 0.00 0.00 78 1015.5
20260508002516 50 171 0.0 0.0 0.00 0.00 0.00 77 1015.5
20260508002015 50 171 0.0 0.0 0.00 0.00 0.00 77 1015.5
20260508001515 50 171 0.0 0.0 0.00 0.00 0.00 77 1015.5
20260508001014 50 171 0.0 0.0 0.00 0.00 0.00 77 1015.5
20260508000519 50 171 0.0 0.0 0.00 0.00 0.00 77 1015.5
20260508000015 50 171 0.0 0.0 0.00 0.00 0.00 77 1015.5
20260507235514 50 171 0.0 0.0 0.00 0.00 0.00 76 1015.5
20260507235012 50 171 0.0 0.0 0.00 0.00 0.00 76 1015.6
20260507234521 51 171 0.0 0.0 0.00 0.00 0.00 76 1015.6
20260507234011 51 171 0.0 0.0 0.00 0.00 0.00 76 1015.6
20260507233511 51 171 0.0 0.0 0.00 0.00 0.00 75 1015.5
20260507233018 51 171 0.0 0.0 0.00 0.00 0.00 75 1015.5
20260507232512 51 171 0.0 0.0 0.00 0.00 0.00 75 1015.5
20260507232010 51 171 0.0 0.0 0.00 0.00 0.00 75 1015.5
20260507231508 51 171 0.0 0.0 0.00 0.00 0.00 75 1015.5
20260507231008 51 171 0.0 1.0 0.00 0.00 0.00 75 1015.4
20260507230507 51 171 0.0 1.0 0.00 0.00 0.00 74 1015.4
20260507230005 51 171 0.0 0.0 0.00 0.00 0.00 74 1015.4
20260507225505 51 171 0.0 2.0 0.00 0.00 0.00 74 1015.5
20260507225005 51 171 0.0 2.0 0.00 0.00 0.00 75 1015.5
20260507224509 51 192 0.0 0.0 0.00 0.00 0.00 75 1015.5
20260507224004 51 192 0.0 1.0 0.00 0.00 0.00 75 1015.4
20260507223504 51 192 0.0 2.0 0.00 0.00 0.00 74 1015.4
20260507223006 51 192 0.0 2.0 0.00 0.00 0.00 74 1015.3
20260507222507 51 193 0.0 1.0 0.00 0.00 0.00 74 1015.2
20260507222004 51 191 0.0 2.0 0.00 0.00 0.00 74 1015.2
20260507221504 51 191 0.0 2.0 0.00 0.00 0.00 74 1015.2
20260507221004 52 191 0.0 1.0 0.00 0.00 0.00 74 1015.3
20260507220505 52 191 0.0 0.0 0.00 0.00 0.00 74 1015.3
20260507220005 52 191 0.0 0.0 0.00 0.00 0.00 74 1015.3
20260507215504 52 191 0.0 0.0 0.00 0.00 0.00 74 1015.3
20260507215005 52 191 0.0 0.0 0.00 0.00 0.00 74 1015.3
20260507214506 52 191 0.0 0.0 0.00 0.00 0.00 74 1015.4
20260507214003 52 191 0.0 0.0 0.00 0.00 0.00 74 1015.4
20260507213604 52 191 0.0 0.0 0.00 0.00 0.00 74 1015.4
20260507213003 52 194 0.0 0.0 0.00 0.00 0.00 74 1015.4
20260507212502 52 194 0.0 0.0 0.00 0.00 0.00 74 1015.4
20260507212002 52 194 0.0 0.0 0.00 0.00 0.00 74 1015.4
20260507211502 52 194 0.0 0.0 0.00 0.00 0.00 73 1015.3
20260507211004 52 194 0.0 0.0 0.00 0.00 0.00 73 1015.3
20260507210502 52 194 0.0 0.0 0.00 0.00 0.00 73 1015.2
20260507210001 52 194 0.0 0.0 0.00 0.00 0.00 73 1015.2
20260507205502 52 194 0.0 0.0 0.00 0.00 0.00 73 1015.1
20260507205000 52 194 0.0 0.0 0.00 0.00 0.00 73 1015.1
20260507204501 52 194 0.0 0.0 0.00 0.00 0.00 72 1015.1
20260507204004 53 194 0.0 0.0 0.00 0.00 0.00 72 1015.1
20260507203504 53 194 0.0 0.0 0.00 0.00 0.00 72 1015.0
20260507203001 53 194 0.0 0.0 0.00 0.00 0.00 72 1015.0
20260507202604 53 194 0.0 1.0 0.00 0.00 0.00 71 1014.9
20260507202104 53 194 0.0 1.0 0.00 0.00 0.00 71 1014.9
20260507201600 53 194 0.0 1.0 0.00 0.00 0.00 71 1014.9
20260507201100 53 194 0.0 1.0 0.00 0.00 0.00 70 1014.8
20260507200601 53 194 0.0 0.0 0.00 0.00 0.00 71 1014.7
20260507200106 53 194 0.0 0.0 0.00 0.00 0.00 71 1014.7
20260507195600 53 194 0.0 0.0 0.00 0.00 0.00 71 1014.7
20260507195059 53 194 0.0 0.0 0.00 0.00 0.00 70 1014.6
20260507194558 53 194 0.0 0.0 0.00 0.00 0.00 70 1014.6
20260507194059 53 194 0.0 0.0 0.00 0.00 0.00 71 1014.6
20260507193559 53 194 0.0 0.0 0.00 0.00 0.00 71 1014.6
20260507193102 53 194 0.0 1.0 0.00 0.00 0.00 70 1014.5
20260507192558 54 194 0.0 1.0 0.00 0.00 0.00 70 1014.5
20260507192100 54 194 0.0 1.0 0.00 0.00 0.00 70 1014.4
20260507191559 54 223 0.0 0.0 0.00 0.00 0.00 71 1014.5
20260507191058 54 223 0.0 1.0 0.00 0.00 0.00 70 1014.4
20260507190557 54 223 0.0 3.0 0.00 0.00 0.00 69 1014.5
20260507190058 54 225 0.0 6.0 0.00 0.00 0.00 68 1014.5
20260507185557 55 296 1.0 6.0 0.00 0.00 0.00 66 1014.5
20260507185057 55 140 0.0 4.0 0.00 0.00 0.00 65 1014.4
20260507184558 55 124 0.0 1.0 0.00 0.00 0.00 64 1014.4
20260507184057 55 103 0.0 5.0 0.00 0.00 0.00 64 1014.4
20260507183558 56 91 1.0 5.0 0.00 0.00 0.00 63 1014.4
20260507183056 56 138 0.0 3.0 0.00 0.00 0.00 61 1014.4
20260507182557 56 298 0.0 3.0 0.00 0.00 0.00 61 1014.4
20260507182056 56 132 0.0 6.0 0.00 0.00 0.00 59 1014.4
20260507181556 57 328 0.0 6.0 0.00 0.00 0.00 59 1014.3
20260507181055 57 326 0.0 5.0 0.00 0.00 0.00 57 1014.3
20260507180556 57 302 0.0 1.0 0.00 0.00 0.00 58 1014.1
20260507180105 57 302 0.0 4.0 0.00 0.00 0.00 57 1014.1
20260507175555 57 266 0.0 5.0 0.00 0.00 0.00 55 1014.1
20260507175055 57 293 0.0 2.0 0.00 0.00 0.00 54 1014.0
20260507174625 58 136 0.0 2.0 0.00 0.00 0.00 53 1014.0
20260507174054 58 136 0.0 2.0 0.00 0.00 0.00 53 1014.0
20260507173554 58 137 0.0 1.0 0.00 0.00 0.00 52 1014.0
20260507173056 58 137 0.0 3.0 0.00 0.00 0.00 52 1014.0
20260507172555 58 140 0.0 1.0 0.00 0.00 0.00 51 1014.0
20260507172053 58 140 0.0 3.0 0.00 0.00 0.00 50 1014.0
20260507171609 58 139 0.0 3.0 0.00 0.00 0.00 50 1014.0
20260507171053 58 142 0.0 3.0 0.00 0.00 0.00 50 1014.0
20260507170553 58 179 0.0 1.0 0.00 0.00 0.00 49 1014.0
20260507170053 58 179 0.0 1.0 0.00 0.00 0.00 49 1014.1
20260507165555 58 179 0.0 1.0 0.00 0.00 0.00 48 1014.1
20260507165052 58 177 0.0 2.0 0.00 0.00 0.00 47 1014.1
20260507164554 59 158 0.0 2.0 0.00 0.00 0.00 48 1014.1
20260507164054 59 159 0.0 2.0 0.00 0.00 0.00 48 1014.1
20260507163552 59 158 0.0 3.0 0.00 0.00 0.00 47 1014.1
20260507163051 59 207 0.0 5.0 0.00 0.00 0.00 46 1014.1
20260507162551 59 124 0.0 5.0 0.00 0.00 0.00 46 1014.0
20260507162054 60 137 0.0 4.0 0.00 0.00 0.00 46 1014.1
20260507161553 60 109 0.0 4.0 0.00 0.00 0.00 45 1014.1
20260507161054 60 338 0.0 7.0 0.00 0.00 0.00 45 1014.1
20260507160550 60 142 1.0 7.0 0.00 0.00 0.00 46 1014.0
20260507160112 60 325 1.0 4.0 0.00 0.00 0.00 45 1014.1
20260507155553 61 115 1.0 5.0 0.00 0.00 0.00 44 1014.1
20260507155052 61 306 2.0 6.0 0.00 0.00 0.00 42 1014.0
20260507154548 61 118 0.0 6.0 0.00 0.00 0.00 46 1014.1
20260507154049 61 343 0.0 6.0 0.00 0.00 0.00 46 1014.1
20260507153551 61 108 1.0 5.0 0.00 0.00 0.00 46 1014.2
20260507153048 61 322 1.0 6.0 0.00 0.00 0.00 45 1014.2
20260507152558 61 344 1.0 4.0 0.00 0.00 0.00 47 1014.2
20260507152050 61 173 1.0 5.0 0.00 0.00 0.00 45 1014.2
20260507151550 61 199 0.0 10.0 0.00 0.00 0.00 46 1014.2
20260507151045 61 305 1.0 10.0 0.00 0.00 0.00 45 1014.3
20260507150545 61 145 0.0 8.0 0.00 0.00 0.00 47 1014.3
20260507150045 61 120 1.0 5.0 0.00 0.00 0.00 45 1014.4
20260507145547 61 318 0.0 5.0 0.00 0.00 0.00 47 1014.4
20260507145047 61 104 1.0 4.0 0.00 0.00 0.00 45 1014.4
20260507144544 61 161 2.0 12.0 0.00 0.00 0.00 47 1014.4
20260507144043 61 224 1.0 12.0 0.00 0.00 0.00 46 1014.5
20260507143542 61 36 0.0 5.0 0.00 0.00 0.00 48 1014.6
20260507143042 62 331 1.0 5.0 0.00 0.00 0.00 47 1014.6
20260507142541 62 194 0.0 5.0 0.00 0.00 0.00 46 1014.7
20260507142039 61 78 0.0 4.0 0.00 0.00 0.00 48 1014.7
20260507141540 61 188 1.0 11.0 0.00 0.00 0.00 48 1014.8
20260507141039 61 336 4.0 11.0 0.00 0.00 0.00 46 1014.9
20260507140538 61 355 0.0 5.0 0.00 0.00 0.00 49 1014.9
20260507140045 61 278 1.0 7.0 0.00 0.00 0.00 49 1015.0
20260507135539 60 132 1.0 7.0 0.00 0.00 0.00 48 1015.0
20260507135037 61 338 2.0 6.0 0.00 0.00 0.00 48 1015.0
20260507134536 60 211 0.0 7.0 0.00 0.00 0.00 50 1015.0
20260507134034 60 298 1.0 5.0 0.00 0.00 0.00 52 1015.1
20260507133534 60 132 0.0 5.0 0.00 0.00 0.00 51 1015.2
20260507133035 60 76 1.0 10.0 0.00 0.00 0.00 51 1015.2
20260507132533 60 341 4.0 10.0 0.00 0.00 0.00 48 1015.2
20260507132032 60 29 0.0 8.0 0.00 0.00 0.00 51 1015.2
20260507131603 60 245 1.0 8.0 0.00 0.00 0.00 50 1015.2
20260507131031 59 321 1.0 11.0 0.00 0.00 0.00 50 1015.3
20260507130530 59 311 3.0 11.0 0.00 0.00 0.00 49 1015.2
20260507130029 59 153 1.0 6.0 0.00 0.00 0.00 52 1015.3
20260507125529 59 148 1.0 8.0 0.00 0.00 0.00 53 1015.3
20260507125028 59 316 1.0 8.0 0.00 0.00 0.00 52 1015.3
20260507124531 59 163 1.0 6.0 0.00 0.00 0.00 52 1015.4
20260507124028 59 286 1.0 8.0 0.00 0.00 0.00 52 1015.4
20260507123528 59 116 1.0 8.0 0.00 0.00 0.00 52 1015.3
20260507123033 59 157 1.0 6.0 0.00 0.00 0.00 51 1015.3
20260507122528 59 11 1.0 5.0 0.00 0.00 0.00 52 1015.4
20260507122024 58 255 0.0 4.0 0.00 0.00 0.00 56 1015.4
20260507121524 58 155 1.0 4.0 0.00 0.00 0.00 57 1015.4
20260507121023 58 136 1.0 4.0 0.00 0.00 0.00 58 1015.4
20260507120523 58 160 1.0 4.0 0.00 0.00 0.00 59 1015.5
20260507120029 57 126 0.0 5.0 0.00 0.00 0.00 61 1015.5
20260507115518 57 142 0.0 5.0 0.00 0.00 0.00 62 1015.6
20260507115018 56 163 0.0 5.0 0.00 0.00 0.00 62 1015.6
20260507114517 56 112 2.0 5.0 0.00 0.00 0.00 62 1015.7
20260507114020 56 240 1.0 8.0 0.00 0.00 0.00 62 1015.7
20260507113516 56 156 1.0 8.0 0.00 0.00 0.00 62 1015.7
20260507113028 56 170 0.0 3.0 0.00 0.00 0.00 63 1015.8
20260507112516 55 142 1.0 3.0 0.00 0.00 0.00 64 1015.8
20260507112011 55 175 0.0 3.0 0.00 0.00 0.00 64 1015.8
20260507111509 54 75 0.0 5.0 0.00 0.00 0.00 65 1015.9
20260507111010 54 196 1.0 5.0 0.00 0.00 0.00 65 1015.9
20260507110508 54 111 0.0 4.0 0.00 0.00 0.00 67 1015.9
20260507110007 54 146 0.0 3.0 0.00 0.00 0.00 66 1016.0
20260507105505 54 107 0.0 4.0 0.00 0.00 0.00 66 1016.0
20260507105003 54 134 1.0 6.0 0.00 0.00 0.00 65 1016.0
20260507104504 54 173 0.0 6.0 0.00 0.00 0.00 67 1016.1
20260507104001 53 125 0.0 6.0 0.00 0.00 0.00 68 1016.2
20260507103600 53 235 0.0 7.0 0.00 0.00 0.00 68 1016.2
20260507103100 53 161 1.0 7.0 0.00 0.00 0.00 67 1016.2
20260507102559 53 161 0.0 5.0 0.00 0.00 0.00 68 1016.2
20260507102056 53 138 0.0 5.0 0.00 0.00 0.00 69 1016.1
20260507101557 52 153 0.0 5.0 0.00 0.00 0.00 69 1016.1
20260507101053 52 180 0.0 3.0 0.00 0.00 0.00 71 1016.1
20260507100551 52 157 0.0 4.0 0.00 0.00 0.00 70 1016.1
20260507100057 52 109 0.0 4.0 0.00 0.00 0.00 71 1016.1
20260507095549 51 252 0.0 4.0 0.00 0.00 0.00 71 1016.1
20260507095049 51 126 0.0 2.0 0.00 0.00 0.00 72 1016.1